Flag for U.S.A. Weather past 2 weeks in Flint, Michigan, U.S.A.

37 °F


Feels Like: 28 °F
Forecast: 28 / 42 °F
Wind: 14 mph from Northeast

Location: Bishop International Airport

Current Time: Nov 27, 2015 at 8:02:31 PM

Latest Report: Nov 27, 2015 at 6:53 PM

Visibility: 10 mi

Pressure: 30.41 "Hg

Humidity: 79%

Dew point: 31 °F

Location of FlintLocation

Historic Weather in Flint — Graph


Flint temperature yesterday

Maximum temperature yesterday: 61 °F (at 11:53 PM)
Minimum temperature yesterday: 47 °F (at 3:53 AM)
Average temperature yesterday: 54 °F

Past Weeks' High & Low Weather Summary

High66 °F (Nov 15, 1:53 PM)92% (Nov 17, 6:53 AM)30.44 "Hg (Nov 17, 6:53 AM)
Low22 °F (Nov 22, 7:53 PM)22% (Nov 19, 3:53 PM)29.53 "Hg (Nov 12, 6:53 PM)
Average44 °F62%30.12 "Hg
* Reported Nov 12 6:53 PM — Nov 27 6:53 PM, Flint, Weather by CustomWeather, © 2015

Note: Actual official high and low records may vary slightly from our data, if they occured in-between our weather recording intervals... More about our weather records


Flint weather history for previous 24 hours

Time TempWeatherWind HumidityBarometerVisibility
6:53 PM
Fri, Nov 27
37 °FOvercast.14 mph79%30.41 "Hg10 mi
6:00 PM38 °FOvercast.12 mph79%30.37 "Hg10 mi
4:53 PM38 °FLow clouds.14 mph86%30.37 "Hg8 mi
4:04 PM39 °FLow clouds.16 mph82%30.34 "Hg9 mi
2:58 PM41 °FLight rain. Mostly cloudy.12 mph82%30.31 "Hg2 mi
1:53 PM41 °FLight rain. Fog.16 mph86%30.30 "Hg2 mi
12:55 PM43 °FLight rain. Mostly cloudy.10 mph82%30.29 "Hg2 mi
11:53 AM44 °FLight rain. Fog.13 mph85%30.29 "Hg2 mi
10:53 AM45 °FLight rain. Fog.12 mph86%30.28 "Hg4 mi
9:53 AM48 °FLight rain. Fog.24 mph86%30.23 "Hg1 mi
8:59 AM57 °FLight rain. Overcast.12 mph83%30.19 "Hg2 mi
7:53 AM56 °FLight rain. Mostly cloudy.12 mph87%30.17 "Hg8 mi
6:53 AM56 °FLight rain. Mostly cloudy.12 mph84%30.18 "Hg7 mi
5:53 AM56 °FRain. Mostly cloudy.9 mph81%30.17 "Hg6 mi
4:53 AM61 °FLight rain. Mostly cloudy.13 mph58%30.17 "Hg8 mi
3:53 AM61 °FPassing clouds.13 mph58%30.17 "Hg10 mi
2:53 AM60 °FPassing clouds.13 mph62%30.19 "Hg10 mi
1:53 AM60 °FMostly cloudy.13 mph62%30.20 "Hg10 mi
12:53 AM62 °FOvercast.17 mph54%30.20 "Hg10 mi
11:53 PM
Thu, Nov 26
61 °FOvercast.16 mph56%30.21 "Hg10 mi
10:53 PM60 °FPassing clouds.15 mph58%30.22 "Hg10 mi
9:53 PM60 °FOvercast.17 mph58%30.24 "Hg10 mi
8:53 PM59 °FClear.18 mph62%30.24 "Hg10 mi
Weather by CustomWeather, © 2015

See weather overviewHow to use our weather pages